This demonstration page uses our WeatherBlox Daily Observations layout. Learn more.

Left ArrowRight Arrow

36.17497, -115.13722

Hourly Observations for March 5, 2016

Temp ( °F °C ) Dew Point ( °F °C ) Humidity (%) Winds ( mph kmh ) Pressure ( in mb ) Visibility ( mi km ) Precip ( " mm )
12:53 am 00:53 Clear 67 19.4 20 -6.7 17 17 SSW 8 13 29.88 1012 10 16.0934 0 0
1:53 am 01:53 Clear 67 19.4 22 -5.6 18 18 S 8 13 29.87 1011 10 16.0934 0 0
2:53 am 02:53 Clear 68 20 28 -2.2 22 22 SW 13 20 29.85 1011 10 16.0934 0 0
3:53 am 03:53 Clear 66 18.9 34 1.1 30 30 S 10 17 29.85 1011 10 16.0934 0 0
4:53 am 04:53 Clear 66 18.9 35 1.7 32 32 SW 14 22 29.85 1011 10 16.0934 0 0
5:53 am 05:53 Clear 63 17.2 33 0.6 33 33 ESE 8 13 29.88 1012 10 16.0934 0 0
6:53 am 06:53 Sunny 63 17.2 35 1.7 35 35 S 13 20 29.88 1012 10 16.0934 0 0
7:53 am 07:53 Sunny 66 18.9 37 2.8 34 34 SSW 13 20 29.9 1012 10 16.0934 0 0
8:53 am 08:53 Sunny 68 20 39 3.9 35 35 SSW 16 26 29.9 1013 10 16.0934 0 0
9:53 am 09:53 Sunny 69 20.6 39 3.9 33 33 SSW 15 24 29.9 1013 10 16.0934 0 0
10:53 am 10:53 Sunny 72 22.2 38 3.3 29 29 S 16 26 29.9 1013 10 16.0934 0 0
11:53 am 11:53 Sunny 74 23.3 39 3.9 28 28 SE 8 13 29.87 1011 10 16.0934 0 0
12:53 pm 12:53 Sunny 76 24.4 39 3.9 26 26 SSW 13 20 29.84 1011 10 16.0934 0 0
1:53 pm 13:53 Sunny 74 23.3 40 4.4 29 29 SSW 20 31 29.83 1010 10 16.0934 0 0
2:53 pm 14:53 Sunny 72 22.2 40 4.4 31 31 SSW 18 30 29.84 1011 10 16.0934 0 0
3:53 pm 15:53 Mostly Sunny 70 21.1 41 5 35 35 SSW 22 35 29.83 1010 10 16.0934 0 0
4:53 pm 16:53 Partly Cloudy 69 20.6 42 5.6 38 38 SW 16 26 29.83 1010 10 16.0934 0 0
5:53 pm 17:53 Mostly Cloudy 68 20 41 5 38 38 SSW 14 22 29.84 1011 10 16.0934 0 0
6:53 pm 18:53 Clear 68 20 40 4.4 36 36 SW 20 31 29.85 1011 10 16.0934 0 0
7:53 pm 19:53 Clear 67 19.4 41 5 39 39 SW 21 33 29.86 1011 10 16.0934 0 0
8:53 pm 20:53 Clear 67 19.4 41 5 39 39 SSW 20 31 29.87 1012 10 16.0934 0 0
9:53 pm 21:53 Clear 67 19.4 40 4.4 37 37 SW 14 22 29.88 1012 10 16.0934 0 0
10:53 pm 22:53 Clear 65 18.3 41 5 42 42 SW 15 24 29.86 1011 10 16.0934 0 0
11:53 pm 23:53 Clear 65 18.3 40 4.4 40 40 SSW 13 20 29.85 1011 10 16.0934 0 0

Powered by AerisWeather